DateTimeUTC,F1_A11,F1_S11,BsB_S11,BsG_S11,BsR_S11,BbsB_S11,BbsG_S11,BbsR_S11,BaB_A11,BaG_A11,BaR_A11,Tu_S11,T_S11,Uu_S11,U_S11,P_S11,T1_A11
2021-02-18T23:00:00Z,00000200,21000000,,,,,,,-000.07,-000.29,-000.23,17.9,24.1,00.3,00.2,0627.7,31.1
2021-02-18T23:01:00Z,00000200,21000000,,,,,,,-000.38,0000.12,-000.14,17.9,24.1,00.3,00.2,0627.7,31.1
2021-02-18T23:02:00Z,00000200,21000000,,,,,,,0000.18,0000.23,0000.25,17.8,24.1,00.3,00.2,0627.7,31.1
2021-02-18T23:03:00Z,00000200,61000000,,,,,,,0000.12,-000.06,-000.00,17.8,24.1,00.3,00.2,0627.7,31.1
2021-02-18T23:04:00Z,00000200,41000000,-000.43,-000.26,0000.01,-000.44,0000.00,0000.07,0000.07,-000.55,-000.18,17.8,23.9,00.4,00.2,0628.5,31.1
2021-02-18T23:05:00Z,00000200,01000000,0000.05,0000.19,0000.13,0000.60,0000.05,0000.06,0000.23,0000.63,0000.45,17.9,23.8,00.4,00.3,0628.5,31.0
2021-02-18T23:06:00Z,00000200,01000000,0000.28,-000.09,-000.03,0000.27,0000.05,0000.15,-000.03,0000.09,-000.00,17.9,23.8,00.4,00.3,0628.5,31.1
2021-02-18T23:07:00Z,00000200,01000000,0000.96,-000.17,0000.13,-000.21,-000.00,0000.24,-000.21,-000.30,-000.05,17.9,23.8,00.4,00.3,0628.4,31.1
2021-02-18T23:08:00Z,00000200,01000000,0000.23,0000.14,0000.26,0000.38,0000.12,0000.18,0000.35,-000.10,-000.09,17.9,23.8,00.4,00.3,0628.5,31.1
2021-02-18T23:09:00Z,00000200,01000000,0000.00,0000.09,0000.02,-000.40,0000.06,-000.27,-000.35,0000.05,0000.03,17.9,23.8,00.4,00.3,0628.4,31.1
2021-02-18T23:10:00Z,00000200,01000000,0000.51,-000.08,0000.55,0000.16,-000.01,0000.33,-000.19,-000.06,-000.29,17.9,23.8,00.5,00.3,0628.6,31.1
2021-02-18T23:11:00Z,00000200,01000000,-000.29,0000.11,0000.11,0000.03,0000.11,0000.02,0000.16,0000.37,0000.27,17.9,23.8,00.4,00.3,0628.6,31.1
2021-02-18T23:12:00Z,00000200,01000000,0000.38,0000.16,0000.21,-000.21,0000.24,0000.01,-000.04,-000.36,-000.42,17.9,23.8,00.4,00.3,0628.5,31.0
2021-02-18T23:13:00Z,00000200,01000000,0000.23,-000.02,0000.09,0000.37,0000.11,0000.11,0000.18,0000.12,0000.26,17.8,23.8,00.4,00.3,0628.5,31.0
2021-02-18T23:14:00Z,00000200,01000000,0000.77,0000.22,-000.15,-000.06,0000.07,0000.18,-000.12,-000.41,-000.05,17.8,23.8,00.4,00.3,0628.6,31.0
2021-02-18T23:15:00Z,00000200,01000000,0001.13,0000.14,0000.41,0000.69,0000.07,0000.11,-000.12,0000.30,0000.04,17.8,23.8,00.4,00.3,0628.4,31.0
2021-02-18T23:16:00Z,00000200,01000000,0000.30,-000.17,-000.15,0000.19,-000.09,0000.02,-000.12,0000.04,-000.24,17.7,23.7,00.4,00.3,0628.5,31.0
2021-02-18T23:17:00Z,00000200,01000000,0000.19,-000.16,0000.12,0000.32,-000.05,-000.11,0000.14,-000.07,0000.33,17.7,23.7,00.4,00.3,0628.4,31.0
2021-02-18T23:18:00Z,00000200,01000000,0000.77,-000.17,0000.02,-000.03,0000.01,-000.03,0000.05,0000.01,-000.35,17.7,23.7,00.4,00.3,0628.3,31.0
2021-02-18T23:19:00Z,00000200,01000000,0000.46,0000.12,0000.23,-000.18,0000.11,-000.15,-000.20,0000.28,0000.11,17.7,23.7,00.5,00.3,0628.4,31.0
2021-02-18T23:20:00Z,00000200,01000000,0000.29,-000.00,-000.19,0000.29,-000.13,-000.04,0000.35,-000.38,0000.22,17.6,23.6,00.5,00.3,0628.3,31.0
2021-02-18T23:21:00Z,00000200,01000000,-000.14,0000.09,-000.05,0000.21,0000.03,-000.01,-000.09,0000.44,0000.27,17.6,23.6,00.5,00.3,0628.2,31.0
2021-02-18T23:22:00Z,00000200,01000000,-000.13,-000.03,0000.02,0000.19,0000.16,0000.25,0000.45,0000.45,-000.06,17.7,23.6,00.4,00.3,0628.4,31.1
2021-02-18T23:23:00Z,00000200,01000000,-000.15,0000.00,-000.07,-000.08,0000.09,-000.16,-000.13,-000.19,0000.05,17.8,23.7,00.5,00.4,0628.4,31.1
2021-02-18T23:24:00Z,00000200,01000000,0000.26,-000.09,-000.23,-000.20,0000.09,-000.25,0000.34,0000.15,0000.07,17.9,23.7,00.4,00.3,0628.4,31.1
2021-02-18T23:25:00Z,00000200,01000000,0000.13,-000.30,0000.12,0000.06,-000.01,0000.31,-000.22,-000.03,0000.20,18.0,23.8,00.5,00.4,0628.4,31.1
2021-02-18T23:26:00Z,00000200,01000000,0000.16,0000.44,-000.09,-000.11,0000.06,0000.17,0000.00,0000.18,0000.11,18.0,23.8,00.5,00.4,0628.3,31.1
2021-02-18T23:27:00Z,00000200,01000000,0000.12,-000.14,0000.30,-000.43,-000.00,0000.20,0000.15,-000.47,-000.34,18.0,23.8,00.5,00.3,0628.4,31.1
2021-02-18T23:28:00Z,00000200,01000000,0000.33,-000.11,0000.36,0000.25,0000.03,0000.23,-000.16,0000.27,0000.02,18.0,23.9,00.4,00.3,0628.3,31.1
2021-02-18T23:29:00Z,00000200,01000000,0000.46,0000.22,0000.22,-000.14,0000.10,0000.00,0000.21,-000.04,-000.09,18.0,23.8,00.5,00.3,0628.2,31.1
2021-02-18T23:30:00Z,00000200,01000000,-000.07,-000.12,-000.27,0000.38,-000.03,0000.20,-000.28,-000.06,0000.37,18.0,23.8,00.5,00.3,0628.1,31.1
2021-02-18T23:31:00Z,00000200,01000000,0000.94,0000.14,-000.32,0000.11,-000.08,-000.40,0000.10,-000.03,-000.28,18.0,23.8,00.5,00.3,0628.2,31.1
2021-02-18T23:32:00Z,00000200,01000000,0000.78,-000.17,0000.18,0000.17,-000.20,-000.01,-000.25,-000.38,0000.18,17.9,23.8,00.5,00.3,0628.2,31.1
2021-02-18T23:33:00Z,00000200,01000000,0000.66,0000.17,-000.12,0000.09,-000.08,0000.06,0000.28,0000.32,-000.22,17.9,23.8,00.4,00.3,0628.2,31.1
2021-02-18T23:34:00Z,00000200,01000000,0000.38,-000.13,-000.07,0000.09,0000.12,-000.10,-000.20,-000.09,0000.19,17.9,23.7,00.5,00.3,0628.2,31.1
2021-02-18T23:35:00Z,00000200,01000000,-000.11,-000.21,-000.14,0000.83,-000.27,-000.05,0000.16,-000.04,-000.11,17.8,23.7,00.4,00.3,0628.1,31.0
2021-02-18T23:36:00Z,00000200,01000000,-000.35,-000.21,0000.35,0000.02,0000.04,-000.03,0000.08,0000.21,0000.08,17.8,23.7,00.4,00.3,0628.2,31.1
2021-02-18T23:37:00Z,00000200,01000000,0000.19,-000.16,-000.11,0000.24,-000.06,0000.10,0000.18,-000.01,-000.02,17.9,23.7,00.5,00.3,0628.1,31.1
2021-02-18T23:38:00Z,00000200,01000000,0001.08,0000.15,0000.24,0000.46,0000.11,0000.28,-000.35,0000.13,0000.31,17.9,23.8,00.5,00.4,0628.1,31.1
2021-02-18T23:39:00Z,00000200,01000000,-000.48,0000.11,0000.08,0000.27,0000.12,0000.07,0000.38,-000.23,-000.24,18.0,23.8,00.5,00.4,0628.1,31.1
2021-02-18T23:40:00Z,00000200,01000000,0000.33,0000.03,0000.19,-000.06,0000.00,0000.17,-000.09,0000.24,-000.00,18.0,23.8,00.5,00.3,0628.1,31.1
2021-02-18T23:41:00Z,00000200,01000000,0000.34,-000.03,0000.01,-000.02,-000.11,0000.03,-000.01,-000.06,-000.12,18.0,23.8,00.4,00.3,0628.2,31.1
2021-02-18T23:42:00Z,00000200,01000000,-000.01,0000.16,0000.25,0000.10,0000.13,-000.15,0000.15,-000.05,0000.07,18.0,23.8,00.4,00.3,0628.1,31.1
2021-02-18T23:43:00Z,00000200,01000000,0000.77,0000.06,0000.03,0000.15,-000.45,-000.16,-000.34,0000.18,0000.02,17.9,23.8,00.4,00.3,0628.2,31.1
2021-02-18T23:44:00Z,00000200,01000000,0000.53,-000.03,0000.03,0000.10,-000.13,0000.23,-000.06,-000.15,-000.06,17.9,23.8,00.4,00.3,0628.1,31.1
2021-02-18T23:45:00Z,00000200,01000000,0000.80,-000.02,-000.11,0000.03,-000.13,0000.09,0000.29,-000.10,0000.16,17.9,23.8,00.4,00.3,0628.1,31.1
2021-02-18T23:46:00Z,00000200,01000000,0000.21,0000.03,0000.03,-000.23,0000.11,-000.09,-000.14,0000.14,0000.04,17.8,23.8,00.4,00.3,0628.1,31.0
2021-02-18T23:47:00Z,00000200,01000000,-000.49,-000.00,0000.06,-000.06,0000.18,-000.05,0000.34,-000.13,-000.05,17.8,23.7,00.4,00.3,0628.1,31.0
2021-02-18T23:48:00Z,00000200,01000000,0000.68,0000.16,-000.22,0000.35,-000.01,-000.21,-000.15,0000.10,0000.12,17.8,23.7,00.4,00.3,0628.2,31.0
2021-02-18T23:49:00Z,00000200,01000000,0000.41,-000.17,0000.14,-000.23,-000.15,0000.19,0000.09,0000.10,-000.11,17.7,23.7,00.4,00.3,0628.0,31.0
2021-02-18T23:50:00Z,00000200,01000000,-000.06,0000.16,-000.02,-000.37,-000.22,0000.17,-000.18,-000.13,0000.02,17.7,23.7,00.4,00.3,0628.1,31.0
2021-02-18T23:51:00Z,00000200,01000000,0000.50,-000.17,0000.12,0000.01,0000.02,-000.06,0000.34,0000.02,0000.08,17.7,23.7,00.4,00.3,0628.0,31.0
2021-02-18T23:52:00Z,00000200,01000000,0000.12,0000.03,0000.01,-000.21,-000.06,-000.23,0000.03,0000.45,0000.27,17.8,23.7,00.5,00.3,0628.0,31.0
2021-02-18T23:53:00Z,00000200,01000000,0000.57,-000.25,0000.29,-000.48,-000.19,0000.15,0000.30,0000.31,-000.08,17.9,23.7,00.4,00.3,0627.9,31.1
2021-02-18T23:54:00Z,00000200,01000000,-000.10,0000.12,0000.41,0000.61,0000.08,0000.30,0000.30,0000.14,0000.11,18.0,23.8,00.4,00.3,0627.9,31.1
2021-02-18T23:55:00Z,00000200,01000000,0000.24,0000.21,-000.05,0000.15,0000.12,-000.07,0000.04,-000.53,0000.28,18.1,23.8,00.4,00.3,0628.0,31.1
2021-02-18T23:56:00Z,00000200,01000000,-000.18,-000.24,-000.10,0000.03,0000.15,-000.13,-000.39,0000.12,-000.14,18.1,23.9,00.4,00.3,0628.0,31.1
2021-02-18T23:57:00Z,00000200,41000000,,,,,,,0000.06,0000.34,-000.08,18.2,23.9,,00.0,0628.1,31.1
2021-02-18T23:58:00Z,00000200,61000000,,,,,,,-000.03,-000.33,0000.01,17.9,24.0,00.2,00.1,0627.1,31.1
2021-02-18T23:59:00Z,00000200,21000000,,,,,,,-000.34,0000.07,-000.10,17.9,24.1,00.3,00.2,0627.0,31.1
